Location: Unspecified
(0.0000°N, 0.0000°E)
Time: 23:18:07
(UTC+00:00)

Vanguard 2 - Pass Details

Date: 07 October 2020
Orbit: 554 x 2937 km, 32.9° (Epoch: 28 October)

Event Time Altitude Azimuth Distance (km) Brightness Sun altitude
Rises 02:37:20 0° 284° (WNW) 6,369 - -47.3°
Reaches altitude 10° 02:45:56 10° 309° (NW) 4,796 - -45.2°
Maximum altitude 02:50:32 12° 330° (NNW) 4,222 - -44.0°
Drops below altitude 10° 02:54:33 10° 351° (N) 4,039 - -43.1°
Exits shadow 02:56:59 - 5° (N) 4,115 11.2 -42.5°
Sets 03:00:14 0° 20° (NNE) 4,438 11.6 -41.6°
